Вернуться в каталог

SL-6 R/B(2)

АктивенHEO
NORAD 23197·ROCKET BODY·🇷🇺 Russia

Запущен Aug 5, 1994 с Plesetsk Cosmodrome

Loading…

Ближайшие Пролёты (ближайшие 24 часа)

TLE

СвежийSource: Space-Track

Эпоха: Sep 14, 2026, 02:08 UTC

1 23197U 94048D   26257.08904991 -.00000371  00000-0  00000-0 0  9991
2 23197  67.7233 133.7293 5375491  87.9523  28.7638  2.03848155239068

Отслеживайте SL-6 R/B(2) в реальном времени с AllMySat

Download on the App Store